CW5018 Weather Reports


Display with metric or nautical units.
time (UTC)temp
F
wind
direction
speed
MPH
gust
MPH
rain 1hr
in
rain 24hr
in
rain mn
in
humidity
%
barometer
mb
20260505180545 74 142 1.0 0.0 0.00 0.00 0.00 23 1008.9
20260505175033 72 304 0.0 0.0 0.00 0.00 0.00 22 1009.1
20260505173529 70 55 1.0 0.0 0.00 0.00 0.00 25 1009.3
20260505172024 70 192 1.0 0.0 0.00 0.00 0.00 25 1009.3
20260505170521 68 185 1.0 0.0 0.00 0.00 0.00 28 1009.1
20260505165036 68 121 0.0 0.0 0.00 0.00 0.00 28 1009.3
20260505163522 65 122 0.0 0.0 0.00 0.00 0.00 32 1009.2
20260505162035 64 161 1.0 0.0 0.00 0.00 0.00 34 1009.3
20260505160530 62 111 1.0 0.0 0.00 0.00 0.00 34 1009.4
20260505152030 59 53 0.0 0.0 0.00 0.00 0.00 42 1008.7
20260505150543 57 54 0.0 0.0 0.00 0.00 0.00 45 1008.5
20260505140534 52 57 0.0 0.0 0.00 0.00 0.00 58 1008.9
20260505125039 52 82 0.0 0.0 0.00 0.00 0.00 55 1008.1
20260505123525 52 82 0.0 0.0 0.00 0.00 0.00 53 1008.1
20260505122021 53 80 0.0 0.0 0.00 0.00 0.00 52 1008.1
20260505120537 53 80 0.0 0.0 0.00 0.00 0.00 51 1007.7
20260505115023 54 48 0.0 0.0 0.00 0.00 0.00 51 1007.6
20260505113540 54 50 0.0 0.0 0.00 0.00 0.00 51 1007.7
20260505112030 54 44 0.0 0.0 0.00 0.00 0.00 50 1007.5
20260505110536 54 48 0.0 0.0 0.00 0.00 0.00 50 1007.2
20260505102043 56 37 0.0 0.0 0.00 0.00 0.00 46 1007.1
20260505100530 56 46 0.0 0.0 0.00 0.00 0.00 46 1007.7
20260505095048 57 42 1.0 0.0 0.00 0.00 0.00 43 1007.4
20260505093523 57 54 1.0 0.0 0.00 0.00 0.00 43 1007.4
20260505092019 56 84 1.0 0.0 0.00 0.00 0.00 44 1007.4
20260505090532 57 63 0.0 0.0 0.00 0.00 0.00 44 1007.3
20260505085021 57 67 0.0 0.0 0.00 0.00 0.00 43 1007.3
20260505083537 58 63 1.0 0.0 0.00 0.00 0.00 43 1007.1
20260505082032 58 46 0.0 0.0 0.00 0.00 0.00 43 1007.1
20260505080527 59 46 0.0 0.0 0.00 0.00 0.00 41 1007.1
20260505075038 59 70 1.0 0.0 0.00 0.00 0.00 41 1007.0
20260505073534 59 17 0.0 0.0 0.00 0.00 0.00 42 1006.7
20260505072051 59 18 0.0 0.0 0.00 0.00 0.00 40 1006.7
20260505070539 59 338 0.0 0.0 0.00 0.00 0.00 41 1006.7
20260505065054 60 31 0.0 0.0 0.00 0.00 0.00 40 1006.5
20260505063520 60 32 0.0 0.0 0.00 0.00 0.00 40 1006.4
20260505062035 61 49 0.0 0.0 0.00 0.00 0.00 39 1006.2
20260505060529 61 55 0.0 0.0 0.00 0.00 0.00 39 1005.6
20260505055023 62 54 0.0 0.0 0.00 0.00 0.00 37 1005.5
20260505053538 62 54 0.0 0.0 0.00 0.00 0.00 36 1005.4
20260505052049 63 50 0.0 0.0 0.00 0.00 0.00 34 1005.4
20260505050544 64 56 0.0 0.0 0.00 0.00 0.00 32 1005.8
20260505040521 66 71 0.0 0.0 0.00 0.00 0.00 30 1004.8
20260505035035 66 262 0.0 0.0 0.00 0.00 0.00 28 1004.6
20260505033523 67 153 0.0 0.0 0.00 0.00 0.00 28 1005.0
20260505032036 68 100 1.0 0.0 0.00 0.00 0.00 27 1005.0
20260505030529 69 213 1.0 0.0 0.00 0.00 0.00 26 1004.6
20260505025042 70 294 1.0 0.0 0.00 0.00 0.00 25 1004.4
20260505023528 71 360 2.0 0.0 0.00 0.00 0.00 22 1004.1
20260505022020 73 12 3.0 0.0 0.00 0.00 0.00 20 1004.0
20260505020536 74 218 2.0 0.0 0.00 0.00 0.00 19 1004.0
20260505015034 75 335 2.0 0.0 0.00 0.00 0.00 16 1004.0
20260505013529 75 278 3.0 0.0 0.00 0.00 0.00 15 1004.0
20260505012043 77 242 2.0 0.0 0.00 0.00 0.00 13 1004.0
20260505010539 78 13 3.0 0.0 0.00 0.00 0.00 11 1004.1
20260505005030 79 62 3.0 0.0 0.00 0.00 0.00 10 1004.0
20260505003526 79 238 2.0 0.0 0.00 0.00 0.00 10 1003.9
20260505002023 80 320 4.0 0.0 0.00 0.00 0.00 9 1003.8
20260505000534 81 289 3.0 0.0 0.00 0.00 0.00 9 1003.7
20260504235021 82 328 3.0 0.0 0.00 0.00 0.00 8 1003.5
20260504233533 81 226 4.0 0.0 0.00 0.00 0.00 8 1003.7
20260504232048 81 9 4.0 0.0 0.00 0.00 0.00 8 1003.5
20260504230536 82 71 4.0 0.0 0.00 0.00 0.00 6 1003.6
20260504225029 84 98 4.0 0.0 0.00 0.00 0.00 5 1004.4
20260504223546 86 40 2.0 0.0 0.00 0.00 0.00 5 1004.3
20260504222030 86 59 5.0 0.0 0.00 0.00 0.00 4 1004.5
20260504220521 86 51 3.0 0.0 0.00 0.00 0.00 4 1004.4
20260504215055 86 360 2.0 0.0 0.00 0.00 0.00 4 1004.6
20260504213528 87 78 2.0 0.0 0.00 0.00 0.00 4 1004.8
20260504212042 87 78 1.0 0.0 0.00 0.00 0.00 4 1004.8
20260504210530 87 142 2.0 0.0 0.00 0.00 0.00 4 1004.8
20260504205022 86 182 2.0 0.0 0.00 0.00 0.00 6 1005.1
20260504203536 85 107 4.0 0.0 0.00 0.00 0.00 3 1005.3
20260504202051 85 100 4.0 0.0 0.00 0.00 0.00 3 1005.3
20260504200523 85 125 3.0 0.0 0.00 0.00 0.00 3 1005.2
20260504195035 86 93 2.0 0.0 0.00 0.00 0.00 2 1005.4
20260504193520 84 76 3.0 0.0 0.00 0.00 0.00 2 1005.4
20260504192029 84 86 2.0 0.0 0.00 0.00 0.00 4 1005.5
20260504190522 83 33 3.0 0.0 0.00 0.00 0.00 2 1005.5
20260504185036 84 103 1.0 0.0 0.00 0.00 0.00 4 1005.6
20260504183530 82 88 3.0 0.0 0.00 0.00 0.00 4 1005.7
20260504182043 81 91 3.0 0.0 0.00 0.00 0.00 7 1005.9